This is the latest recevied weather packets stored in our database for station/object W8DRH-13. If no packets are shown the sender has not sent any weather packets the latest 10 day(s).
| Time | Temp. | Humidity | Pressure | Rain* | Wind** | Luminosity | Snow |
|---|---|---|---|---|---|---|---|
| 1777931064 | 22.78° C | 51% | 1002.4 hPa | 0 mm | - | 135 W/m² | - |
| 1777930760 | 22.78° C | 52% | 1002.2 hPa | 0 mm | - | 355 W/m² | - |
| 1777930456 | 22.78° C | 52% | 1002.3 hPa | 0 mm | - | 402 W/m² | - |
| 1777930154 | 22.78° C | 53% | 1002.2 hPa | 0 mm | - | 411 W/m² | - |
| 1777929849 | 23.33° C | 53% | 1002.1 hPa | 0 mm | - | 318 W/m² | - |
| 1777929548 | 22.78° C | 53% | 1002.3 hPa | 0 mm | - | 394 W/m² | - |
| 1777929244 | 22.78° C | 54% | 1002.5 hPa | 0 mm | - | 137 W/m² | - |
| 1777928941 | 22.78° C | 54% | 1002.6 hPa | 0 mm | - | 457 W/m² | - |
| 1777928638 | 22.78° C | 55% | 1002.5 hPa | 0 mm | - | 490 W/m² | - |
| 1777928335 | 22.78° C | 55% | 1002.7 hPa | 0 mm | - | 516 W/m² | - |
| 1777928033 | 22.22° C | 55% | 1002.6 hPa | 0 mm | - | 534 W/m² | - |
| 1777927731 | 22.22° C | 56% | 1002.7 hPa | 0 mm | - | 191 W/m² | - |
| 1777927429 | 22.78° C | 55% | 1002.7 hPa | 0 mm | - | 594 W/m² | - |
| 1777927128 | 22.78° C | 54% | 1002.8 hPa | 0 mm | - | 548 W/m² | - |
| 1777926824 | 23.33° C | 55% | 1002.8 hPa | 0 mm | - | 557 W/m² | - |
| 1777926520 | 22.78° C | 55% | 1002.3 hPa | 0 mm | - | 609 W/m² | - |
| 1777926218 | 22.78° C | 56% | 1002.4 hPa | 0 mm | - | 235 W/m² | - |
| 1777925914 | 22.78° C | 54% | 1002.7 hPa | 0 mm | - | 628 W/m² | - |
| 1777925612 | 22.78° C | 56% | 1002.8 hPa | 0 mm | - | 410 W/m² | - |
| 1777925309 | 23.33° C | 55% | 1002.9 hPa | 0 mm | - | 420 W/m² | - |
| 1777925005 | 22.78° C | 55% | 1003.1 hPa | 0 mm | - | 379 W/m² | - |
| 1777924702 | 22.22° C | 56% | 1003.1 hPa | 0 mm | - | 229 W/m² | - |
| 1777924397 | 22.78° C | 56% | 1003 hPa | 0 mm | - | 194 W/m² | - |
| 1777924094 | 22.78° C | 56% | 1003.1 hPa | 0 mm | - | 251 W/m² | - |
| 1777923791 | 22.78° C | 56% | 1002.9 hPa | 0 mm | - | 243 W/m² | - |
* Rain latest hour (hover to see other rain measurements)
** Current wind speed in m/s (hover to see current wind gust speed)